Dale Hollow Lake Weather Center

Moon Phase Calendar



Dale Hollow Lake Water Level
Online Cameras

 


      

Current Conditions in Byrdstown
3/3/2021 6:41:12 PM

52°F
Feels Like 44
Clear
Humidity
40%
Pressure
30.06"
Wind
5.8 mph (WSW)
Dew Point
29°F
UV Index
0/10 (Low)
Visibility
6 mi

Hourly Forecast

Date & Time Wed, Mar 3
6:00 PM
Wed, Mar 3
7:00 PM
Wed, Mar 3
8:00 PM
Wed, Mar 3
9:00 PM
Wed, Mar 3
10:00 PM
Wed, Mar 3
11:00 PM
Thu, Mar 4
12:00 AM
Thu, Mar 4
1:00 AM
Thu, Mar 4
2:00 AM
Thu, Mar 4
3:00 AM
Thu, Mar 4
4:00 AM
Thu, Mar 4
5:00 AM
Thu, Mar 4
6:00 AM
Thu, Mar 4
7:00 AM
Thu, Mar 4
8:00 AM
Thu, Mar 4
9:00 AM
Thu, Mar 4
10:00 AM
Thu, Mar 4
11:00 AM
Thu, Mar 4
12:00 PM
Thu, Mar 4
1:00 PM
Thu, Mar 4
2:00 PM
Thu, Mar 4
3:00 PM
Thu, Mar 4
4:00 PM
Thu, Mar 4
5:00 PM
Thu, Mar 4
6:00 PM
Thu, Mar 4
7:00 PM
Thu, Mar 4
8:00 PM
Thu, Mar 4
9:00 PM
Thu, Mar 4
10:00 PM
Thu, Mar 4
11:00 PM
Fri, Mar 5
12:00 AM
Fri, Mar 5
1:00 AM
Fri, Mar 5
2:00 AM
Fri, Mar 5
3:00 AM
Fri, Mar 5
4:00 AM
Fri, Mar 5
5:00 AM
Fri, Mar 5
6:00 AM
Fri, Mar 5
7:00 AM
Fri, Mar 5
8:00 AM
Fri, Mar 5
9:00 AM
Fri, Mar 5
10:00 AM
Fri, Mar 5
11:00 AM
Fri, Mar 5
12:00 PM
Fri, Mar 5
1:00 PM
Fri, Mar 5
2:00 PM
Fri, Mar 5
3:00 PM
Fri, Mar 5
4:00 PM
Fri, Mar 5
5:00 PM
Condition
Clear

Clear

Clear

Clear

Clear

Clear

Clear

Clear

Clear

Clear

Clear

Clear

Clear

Clear

Clear

Clear

Clear

Clear

Clear

Clear

Clear

Clear

Clear

Clear

Clear

Clear

Clear

Clear

Clear

Clear

Clear

Clear

Clear

Clear

Clouds

Clouds

Clouds

Clouds

Clouds

Clouds

Clouds

Clouds

Clouds

Clouds

Clouds

Clouds

Clouds

Clouds
Temperature 52°F48°F45°F43°F42°F41°F41°F40°F40°F39°F39°F38°F38°F40°F45°F50°F55°F57°F58°F59°F59°F58°F57°F52°F47°F45°F43°F42°F41°F40°F39°F39°F38°F37°F37°F36°F35°F37°F41°F44°F47°F49°F50°F51°F50°F49°F48°F45°F
Feels Like 45°F43°F40°F39°F38°F37°F36°F36°F35°F35°F34°F34°F34°F37°F43°F47°F52°F54°F53°F54°F53°F52°F51°F48°F42°F40°F38°F37°F36°F35°F34°F33°F32°F31°F31°F30°F29°F30°F34°F37°F40°F41°F42°F42°F42°F41°F40°F38°F
Cloudiness 1%1%0%0%0%0%0%0%0%0%0%0%0%0%0%2%2%2%1%0%0%0%0%0%0%0%0%0%0%0%0%0%0%0%25%40%50%100%99%99%97%95%96%100%100%100%100%100%
Visibility 6 mi6 mi6 mi6 mi6 mi6 mi6 mi6 mi6 mi6 mi6 mi6 mi6 mi6 mi6 mi6 mi6 mi6 mi6 mi6 mi6 mi6 mi6 mi6 mi6 mi6 mi6 mi6 mi6 mi6 mi6 mi6 mi6 mi6 mi6 mi6 mi6 mi6 mi6 mi6 mi6 mi6 mi6 mi6 mi6 mi6 mi6 mi6 mi
Precipitation 0%0%0%0%0%0%0%0%0%0%0%0%0%0%0%0%0%0%0%0%0%0%0%0%0%0%0%0%0%0%0%0%0%0%0%0%0%0%0%0%0%0%0%0%0%0%0%0%
Humidity 40%61%74%81%84%86%88%90%91%92%93%93%94%92%83%75%66%56%48%44%45%47%52%65%72%76%79%80%80%79%80%81%83%84%83%84%86%79%70%62%55%51%48%48%48%50%55%61%
Dew Point 29°F35°F37°F38°F37°F38°F38°F38°F38°F37°F37°F36°F36°F38°F40°F42°F44°F42°F39°F38°F38°F39°F40°F41°F39°F38°F37°F37°F36°F35°F34°F34°F33°F33°F32°F31°F30°F30°F31°F31°F32°F32°F31°F31°F32°F32°F32°F33°F
Pressure 30.06"30.06"30.12"30.12"30.15"30.15"30.15"30.15"30.15"30.15"30.15"30.18"30.18"30.18"30.18"30.18"30.18"30.18"30.15"30.12"30.12"30.09"30.09"30.12"30.12"30.15"30.18"30.18"30.18"30.18"30.18"30.21"30.21"30.18"30.18"30.21"30.21"30.21"30.24"30.24"30.24"30.24"30.21"30.18"30.18"30.18"30.18"30.21"
Wind Speed 4.1 mph3.4 mph3.1 mph2.9 mph3.1 mph3.6 mph3.3 mph3.1 mph3.3 mph3.2 mph2.9 mph2.5 mph1.9 mph0.8 mph0.3 mph1.8 mph2.3 mph3.2 mph4.6 mph5.1 mph5.9 mph6.3 mph6.5 mph4.6 mph4.3 mph4.4 mph4.2 mph3.6 mph3.5 mph3.7 mph3.6 mph3.5 mph4.1 mph5 mph4.4 mph3.6 mph4.3 mph5.9 mph5.8 mph6.7 mph6.9 mph7.9 mph8.3 mph8.6 mph8.6 mph8 mph8.1 mph6.3 mph
Wind
Direction
247°
WSW
227°
SW
217°
SW
228°
SW
233°
SW
226°
SW
220°
SW
210°
SSW
219°
SW
218°
SW
228°
SW
222°
SW
214°
SW
219°
SW
343°
NNW
39°
NE
34°
NE
21°
NNE
16°
NNE
10°
N
10°
N
11°
N
13°
NNE
12°
NNE
15°
NNE
27°
NNE
40°
NE
53°
NE
57°
ENE
64°
ENE
64°
ENE
60°
ENE
59°
ENE
61°
ENE
67°
ENE
69°
ENE
70°
ENE
61°
ENE
60°
ENE
56°
NE
47°
NE
42°
NE
38°
NE
37°
NE
36°
NE
31°
NNE
28°
NNE
27°
NNE

Daily Forecast

Date High Low Precip. Humidity
Today
Mar 3

Clear
56 °F
32 °F
0%
47%
Thursday
Mar 4

Clouds
58 °F
38 °F
0%
55%
Friday
Mar 5

Clouds
50 °F
35 °F
0%
51%
Saturday
Mar 6

Clouds
49 °F
30 °F
0%
51%
Sunday
Mar 7

Clear
54 °F
31 °F
0%
45%
Monday
Mar 8

Clear
60 °F
36 °F
0%
52%
Tuesday
Mar 9

Clouds
62 °F
42 °F
0%
54%
Wednesday
Mar 10

Rain
63 °F
51 °F
65%
60%
Thursday
Mar 11

Rain
63 °F
48 °F
100%
48%
Friday
Mar 12

Rain
55 °F
41 °F
100%
62%
Saturday
Mar 13

Rain
64 °F
48 °F
100%
81%
Sunday
Mar 14

Rain
60 °F
44 °F
78%
56%
Monday
Mar 15

Rain
67 °F
41 °F
100%
61%
Tuesday
Mar 16

Rain
69 °F
51 °F
100%
79%
Wednesday
Mar 17

Rain
50 °F
41 °F
88%
72%
Thursday
Mar 18

Snow
48 °F
29 °F
63%
56%


Temperature 8-14 Day Outlook



Precipitation 8-14 Day Outlook




Quick Links
Dale Hollow Lake News
Dale Hollow Lake Photos
Dale Hollow Lake Videos




About Us
Contact Us
Site Map
Search Site
Advertise With Us
   
DaleHollow.USLakes.info
THE DALE HOLLOW LAKE WEBSITE

Copyright 2021, Lakes Online
Privacy    |    Legal